Regional Weather Roundup
Issued by NWS

Home | Current Version | Previous Version | Text Only | Print | Product List | Glossary Off
Versions: 1 2 3 4 5 6 7 8 9 10 11 12 13 14 15 16 17 18 19 20 21 22 23 24 25 26 27 28 29 30 31 32 33 34 35 36 37 38 39 40 41 42 43 44 45 46 47 48 49 50

763
ASUS45 KBOU 292207
RWRCO

WEATHER ROUNDUP FOR COLORADO
NATIONAL WEATHER SERVICE DENVER/BOULDER CO
400 PM MDT SUN MAY 29 2016

NOTE: "FAIR" INDICATES FEW OR NO CLOUDS BELOW 12000 FEET WITH NO
SIGNIFICANT WEATHER AND/OR OBSTRUCTIONS TO VISIBILITY.

COZ001>005-013-030-031-292300-
...NORTHWEST COLORADO...

CITY           SKY/WX    TMP DP  RH WIND       PRES   REMARKS
CRAIG          FAIR      70  36  28 SW15      30.14F
HAYDEN         NOT AVBL
MEEKER         LGT RAIN  62  34  35 N20G32    30.19R
MOUNT WERNER   NOT AVBL
STEAMBOAT SPGS PTSUNNY   57  35  44 SE15G26   30.21F
WALDEN         NOT AVBL
$$

COZ006>008-011-292300-
...WEST CENTRAL VALLEYS...

CITY           SKY/WX    TMP DP  RH WIND       PRES   REMARKS
GRAND JUNCTION FAIR      79  27  14 S10       30.04F
MONTROSE       FAIR      69  32  25 SE7       30.15F
EAGLE          MOSUNNY   72  30  21 W12G20    30.18S
RIFLE          FAIR      77  33  20 NW20G33   30.12S
DELTA          CLOUDY    77  28  16 SE7       30.13S
NUCLA          FAIR      72  32  23 E18G28    30.17F
$$

COZ017>023-064>068-292300-
...SOUTHWEST COLORADO...

CITY           SKY/WX    TMP DP  RH WIND       PRES   REMARKS
DURANGO        FAIR      76  15  10 VRB5G23   30.13F
CORTEZ         FAIR      81  21  11 SW15      30.08F
PAGOSA SPRINGS FAIR      71  14  11 E6G21     30.21F
TELLURIDE      FAIR      57  28  31 E7        30.35F
WOLF CREEK PAS PTSUNNY   45  18  33 SE6       30.50F
$$

COZ009-010-012-014-032>034-037-058>063-292300-
...CENTRAL COLORADO...

CITY           SKY/WX    TMP DP  RH WIND       PRES   REMARKS
ASPEN          PTSUNNY   62  28  27 S22G35    30.27R
BUENA VISTA    FAIR      58  29  32 W21G32    30.28R
COPPER MTN     NOT AVBL
BERTHOUD PASS  FAIR      37  30  75 NE7G25    30.49S
COTTONWOOD PAS LGT RAIN  50  30  46 SW25G31   30.41R
GUNNISON       FAIR      59  28  31 N10       30.31F
KREMMLING      LGT RAIN  59  36  41 NW15G25   30.26R
LEADVILLE      PTSUNNY   56  17  21 MISG      30.33F
SALIDA         FAIR      64  32  29 W32G40    30.32R
SUNLIGHT       FAIR      54  30  40 CALM      30.44F
WILKERSON PASS CLOUDY    52  21  30 SW6       30.44F
$$

COZ069>075-292300-
...SAN LUIS VALLEY/SANGRE DE CRISTO MOUNTAINS...

CITY           SKY/WX    TMP DP  RH WIND       PRES   REMARKS
ALAMOSA        FAIR      67  26  21 NW13      30.22F
LA VETA PASS   FAIR      59  23  25 W6        30.37F
SAGUACHE       PTSUNNY   57  32  38 NW12      30.29F
$$

COZ035-036-038>040-292300-
...NORTHERN COLORADO FRONT RANGE...

CITY           SKY/WX    TMP DP  RH WIND       PRES   REMARKS
DENVER INTL AP PTSUNNY   73  45  36 SE12      30.08F
DMNS CITY PARK   N/A     76  31  19 NE3G14    30.06F
AURORA         PTSUNNY   72  40  31 S22       30.10F
FRONT RANGE AP PTSUNNY   72  45  37 SE9       30.10S
ERIE MUNI ARPT FAIR      79  35  20 SE5       30.05S
BOULDER MUN AP FAIR      75  34  22 SE3       30.06S
CENTENNIAL     PTSUNNY   70  38  31 SE14      30.11S
BROOMFIELD     PTSUNNY   75  34  22 MISG      30.09F
FORT COLLINS   FAIR      46  43  87 NW10      30.08R
LONGMONT       CLOUDY    73  40  29 NW15G24   30.09R
$$

COZ041-046-047-076>085-087-088-292300-
...PIKES PEAK/PALMER DIVIDE AND SOUTHERN FOOTHILLS...

CITY           SKY/WX    TMP DP  RH WIND       PRES   REMARKS
COLO. SPRINGS  PTSUNNY   59  40  49 E18       30.17F THUNDER
A. F. ACADEMY  CLOUDY    61  32  33 SW10      30.17R
SCHRIEVER AFB  NOT AVBL
ELLICOTT       TSTM     N/A N/A N/A NW25G38   30.16R
FALCON         TSTM      58  29  32 NE6G23    30.22S
FORT CARSON    FAIR      62  41  44 E8        30.13S
LIMON          FAIR      73  42  32 S5        30.09F
MONUMENT HILL  FAIR      61  36  39 S9        30.23R
TRINIDAD       FAIR      77  30  17 S14       30.10F
$$

COZ042>045-048>051-090-091-292300-
...NORTHEAST COLORADO...

CITY           SKY/WX    TMP DP  RH WIND       PRES   REMARKS
GREELEY ARPT   FAIR      79  37  22 CALM      30.06S
AKRON          FAIR      78  44  29 N3        30.05F
BURLINGTON     FAIR      83  37  19 SW13      30.01F
WRAY           FAIR      82  45  26 CALM      29.99F
STERLING       FAIR      81  46  30 SW3       30.00F
HOLYOKE        NOT AVBL
FORT MORGAN    FAIR      81  41  24 SE5       30.04F
$$

COZ086-089-092>099-292300-
...SOUTHEAST COLORADO...

CITY           SKY/WX    TMP DP  RH WIND       PRES   REMARKS
PUEBLO         FAIR      79  34  19 VRB7      30.05F
LA JUNTA       FAIR      84  36  18 SW9       30.00F
LAMAR          FAIR      87  39  18 W8        29.94F
SPRINGFIELD      N/A     63  47  55 SE24G36   30.05S
$$




USA.gov is the U.S. government's official web portal to all federal, state and local government web resources and services.